Location: Malanoce
(44.2500°N, 7.4667°E)
Time: 07:10:17
(UTC+00:00)

BlueWalker 3 - Pass Details

Date: 21 January 2026
Orbit: 450 x 461 km, 53.2° (Epoch: 11 February)

Event Time Altitude Azimuth Distance (km) Brightness Sun altitude
Rises 18:56:23 0° 247° (WSW) 2,448 6.5 -26.9°
Reaches altitude 10° 18:58:32 10° 251° (WSW) 1,578 5.4 -27.3°
Enters shadow 19:00:20 27° 264° (W) 906 3.8 -27.6°
